Time,TemperatureF,DewpointF,PressureIn,WindDirection,WindDirectionDegrees,WindSpeedMPH,WindSpeedGustMPH,Humidity,HourlyPrecipIn,Conditions,Clouds,dailyrainin,SoftwareType,DateUTC
2013-02-07 00:00:00,33.3,32.0,30.11,South,180,2.0,12.0,95,0.00,,,0.00,Weather View 32 v70,2013-02-07 06:00:00,
2013-02-07 00:05:00,33.3,32.0,30.12,SSW,202,4.0,12.0,95,0.00,,,0.00,Weather View 32 v70,2013-02-07 06:05:00,
2013-02-07 00:10:00,33.3,32.0,30.12,SE,135,4.0,12.0,95,0.00,,,0.00,Weather View 32 v70,2013-02-07 06:10:00,
2013-02-07 00:15:00,33.2,31.9,30.11,South,180,11.0,12.0,95,0.00,,,0.00,Weather View 32 v70,2013-02-07 06:15:00,
2013-02-07 00:20:00,33.2,31.9,30.10,South,180,4.0,13.0,95,0.00,,,0.00,Weather View 32 v70,2013-02-07 06:20:00,
2013-02-07 00:25:00,33.1,31.8,30.10,SSE,157,2.0,13.0,95,0.00,,,0.00,Weather View 32 v70,2013-02-07 06:25:00,
2013-02-07 00:30:00,33.3,32.0,30.11,SE,135,4.0,13.0,95,0.00,,,0.00,Weather View 32 v70,2013-02-07 06:30:00,
2013-02-07 00:35:00,33.4,32.1,30.11,South,180,2.0,13.0,95,0.00,,,0.00,Weather View 32 v70,2013-02-07 06:35:00,
2013-02-07 00:40:00,33.5,32.2,30.10,South,180,7.0,13.0,95,0.00,,,0.00,Weather View 32 v70,2013-02-07 06:40:00,
2013-02-07 00:45:00,33.5,32.2,30.10,SSW,202,8.0,13.0,95,0.00,,,0.00,Weather View 32 v70,2013-02-07 06:45:00,
2013-02-07 00:50:00,33.3,32.0,30.10,SE,135,6.0,13.0,95,0.00,,,0.00,Weather View 32 v70,2013-02-07 06:50:00,
2013-02-07 00:55:00,33.3,32.0,30.09,South,180,5.0,13.0,95,0.00,,,0.00,Weather View 32 v70,2013-02-07 06:55:00,
2013-02-07 01:00:00,33.1,31.8,30.09,South,180,4.0,14.0,95,0.00,,,0.00,Weather View 32 v70,2013-02-07 07:00:00,
2013-02-07 01:05:00,33.1,31.8,30.09,South,180,3.0,14.0,95,0.00,,,0.00,Weather View 32 v70,2013-02-07 07:05:00,
2013-02-07 01:10:00,32.9,31.6,30.09,South,180,3.0,14.0,95,0.00,,,0.00,Weather View 32 v70,2013-02-07 07:10:00,
2013-02-07 01:15:00,32.9,31.6,30.09,SE,135,6.0,14.0,95,0.00,,,0.00,Weather View 32 v70,2013-02-07 07:15:00,
2013-02-07 01:20:00,32.9,31.6,30.09,South,180,6.0,14.0,95,0.00,,,0.00,Weather View 32 v70,2013-02-07 07:20:00,
2013-02-07 01:25:00,33.0,31.7,30.10,SSE,157,5.0,14.0,95,0.00,,,0.00,Weather View 32 v70,2013-02-07 07:25:00,
2013-02-07 01:30:00,32.9,31.6,30.10,South,180,2.0,14.0,95,0.00,,,0.00,Weather View 32 v70,2013-02-07 07:30:00,
2013-02-07 01:35:00,32.9,31.6,30.09,South,180,6.0,14.0,95,0.00,,,0.00,Weather View 32 v70,2013-02-07 07:35:00,
2013-02-07 01:40:00,32.9,31.6,30.09,South,180,2.0,14.0,95,0.00,,,0.00,Weather View 32 v70,2013-02-07 07:40:00,
2013-02-07 01:45:00,32.9,31.6,30.09,SSE,157,4.0,14.0,95,0.00,,,0.00,Weather View 32 v70,2013-02-07 07:45:00,
2013-02-07 01:50:00,32.9,31.6,30.09,South,180,3.0,14.0,95,0.00,,,0.00,Weather View 32 v70,2013-02-07 07:50:00,
2013-02-07 01:55:00,32.9,31.6,30.09,SSW,202,3.0,14.0,95,0.00,,,0.00,Weather View 32 v70,2013-02-07 07:55:00,
2013-02-07 02:00:00,32.9,31.6,30.09,WSW,247,3.0,13.0,95,0.00,,,0.00,Weather View 32 v70,2013-02-07 08:00:00,
2013-02-07 02:05:00,32.9,31.6,30.09,SE,135,4.0,13.0,95,0.00,,,0.00,Weather View 32 v70,2013-02-07 08:05:00,
2013-02-07 02:10:00,32.9,31.6,30.09,SE,135,7.0,13.0,95,0.00,,,0.00,Weather View 32 v70,2013-02-07 08:10:00,
2013-02-07 02:16:00,32.9,31.6,30.08,South,180,4.0,13.0,95,0.00,,,0.00,Weather View 32 v70,2013-02-07 08:16:00,
2013-02-07 02:20:00,32.9,31.6,30.08,SW,225,2.0,13.0,95,0.00,,,0.00,Weather View 32 v70,2013-02-07 08:20:00,
2013-02-07 02:21:00,32.9,31.6,30.08,South,180,6.0,13.0,95,0.00,,,0.00,Weather View 32 v70,2013-02-07 08:21:00,
2013-02-07 02:26:00,32.9,31.6,30.08,South,180,4.0,13.0,95,0.00,,,0.00,Weather View 32 v70,2013-02-07 08:26:00,
2013-02-07 02:31:00,32.9,31.6,30.09,South,180,7.0,13.0,95,0.00,,,0.00,Weather View 32 v70,2013-02-07 08:31:00,
2013-02-07 02:36:00,32.9,31.6,30.08,SW,225,5.0,13.0,95,0.00,,,0.00,Weather View 32 v70,2013-02-07 08:36:00,
2013-02-07 02:41:00,32.9,31.6,30.08,SSW,202,7.0,14.0,95,0.00,,,0.00,Weather View 32 v70,2013-02-07 08:41:00,
2013-02-07 02:46:00,33.0,31.7,30.08,South,180,6.0,14.0,95,0.00,,,0.00,Weather View 32 v70,2013-02-07 08:46:00,
2013-02-07 02:51:00,32.9,31.6,30.08,South,180,1.0,14.0,95,0.00,,,0.00,Weather View 32 v70,2013-02-07 08:51:00,
2013-02-07 02:56:00,32.9,31.6,30.08,SSW,202,5.0,14.0,95,0.00,,,0.00,Weather View 32 v70,2013-02-07 08:56:00,
2013-02-07 03:01:00,32.9,31.6,30.08,South,180,2.0,14.0,95,0.00,,,0.00,Weather View 32 v70,2013-02-07 09:01:00,
2013-02-07 03:06:00,32.9,31.6,30.08,South,180,4.0,14.0,95,0.00,,,0.00,Weather View 32 v70,2013-02-07 09:06:00,
2013-02-07 03:11:00,32.9,31.6,30.07,SSE,157,5.0,14.0,95,0.00,,,0.00,Weather View 32 v70,2013-02-07 09:11:00,
2013-02-07 03:16:00,32.8,31.5,30.07,South,180,3.0,14.0,95,0.00,,,0.00,Weather View 32 v70,2013-02-07 09:16:00,
2013-02-07 03:21:00,32.8,31.5,30.07,SSW,202,4.0,14.0,95,0.00,,,0.00,Weather View 32 v70,2013-02-07 09:21:00,
2013-02-07 03:26:00,32.7,31.4,30.07,SSW,202,3.0,14.0,95,0.00,,,0.00,Weather View 32 v70,2013-02-07 09:26:00,
2013-02-07 03:31:00,32.7,31.4,30.06,SW,225,2.0,14.0,95,0.00,,,0.00,Weather View 32 v70,2013-02-07 09:31:00,
2013-02-07 03:36:00,32.7,31.4,30.07,South,180,4.0,14.0,95,0.00,,,0.00,Weather View 32 v70,2013-02-07 09:36:00,
2013-02-07 03:41:00,32.7,31.4,30.07,South,180,2.0,14.0,95,0.00,,,0.00,Weather View 32 v70,2013-02-07 09:41:00,
2013-02-07 03:46:00,32.7,31.4,30.07,SW,225,2.0,14.0,95,0.00,,,0.00,Weather View 32 v70,2013-02-07 09:46:00,
2013-02-07 03:51:00,0.0,-78.6,0.93,North,0,0.0,12.0,1,0.00,,,0.00,Weather View 32 v70,2013-02-07 09:51:00,
2013-02-07 03:56:00,0.0,-78.6,0.93,North,0,0.0,12.0,1,0.00,,,0.00,Weather View 32 v70,2013-02-07 09:56:00,
2013-02-07 04:01:00,0.0,-78.6,0.93,North,0,0.0,12.0,1,0.00,,,0.00,Weather View 32 v70,2013-02-07 10:01:00,
2013-02-07 04:06:00,32.6,31.3,30.07,SW,225,4.0,12.0,95,0.00,,,0.00,Weather View 32 v70,2013-02-07 10:06:00,
2013-02-07 04:11:00,32.6,31.3,30.07,SW,225,5.0,12.0,95,0.00,,,0.00,Weather View 32 v70,2013-02-07 10:11:00,
2013-02-07 04:16:00,32.6,31.3,30.07,South,180,3.0,12.0,95,0.00,,,0.00,Weather View 32 v70,2013-02-07 10:16:00,
2013-02-07 04:21:00,32.5,31.2,30.07,South,180,4.0,12.0,95,0.00,,,0.00,Weather View 32 v70,2013-02-07 10:21:00,
2013-02-07 04:26:00,32.5,31.2,30.07,South,180,3.0,11.0,95,0.00,,,0.00,Weather View 32 v70,2013-02-07 10:26:00,
2013-02-07 04:31:00,32.5,31.2,30.07,SE,135,6.0,11.0,95,0.00,,,0.00,Weather View 32 v70,2013-02-07 10:31:00,
2013-02-07 04:36:00,32.5,31.2,30.07,SE,135,2.0,11.0,95,0.00,,,0.00,Weather View 32 v70,2013-02-07 10:36:00,
2013-02-07 04:41:00,32.5,31.2,30.07,SE,135,4.0,11.0,95,0.00,,,0.00,Weather View 32 v70,2013-02-07 10:41:00,
2013-02-07 04:46:00,32.6,31.3,30.07,SE,135,2.0,11.0,95,0.00,,,0.00,Weather View 32 v70,2013-02-07 10:46:00,
2013-02-07 04:51:00,32.5,31.2,30.07,SE,135,4.0,11.0,95,0.00,,,0.00,Weather View 32 v70,2013-02-07 10:51:00,
2013-02-07 04:56:00,32.6,31.3,30.07,SW,225,2.0,11.0,95,0.00,,,0.00,Weather View 32 v70,2013-02-07 10:56:00,
2013-02-07 05:01:00,32.6,31.3,30.06,South,180,9.0,11.0,95,0.00,,,0.00,Weather View 32 v70,2013-02-07 11:01:00,
2013-02-07 05:06:00,32.6,31.3,30.06,SSW,202,4.0,11.0,95,0.00,,,0.00,Weather View 32 v70,2013-02-07 11:06:00,
2013-02-07 05:11:00,32.6,31.3,30.06,South,180,7.0,10.0,95,0.00,,,0.00,Weather View 32 v70,2013-02-07 11:11:00,
2013-02-07 05:16:00,32.6,31.3,30.06,SSE,157,3.0,10.0,95,0.00,,,0.00,Weather View 32 v70,2013-02-07 11:16:00,
2013-02-07 05:21:00,32.6,31.3,30.06,South,180,4.0,10.0,95,0.00,,,0.00,Weather View 32 v70,2013-02-07 11:21:00,
2013-02-07 05:26:00,32.5,31.2,30.06,South,180,4.0,10.0,95,0.00,,,0.00,Weather View 32 v70,2013-02-07 11:26:00,
2013-02-07 05:31:00,32.5,31.2,30.06,South,180,2.0,10.0,95,0.00,,,0.00,Weather View 32 v70,2013-02-07 11:31:00,
2013-02-07 05:36:00,32.6,31.3,30.06,SSW,202,4.0,10.0,95,0.00,,,0.00,Weather View 32 v70,2013-02-07 11:36:00,
2013-02-07 05:41:00,32.7,31.4,30.06,South,180,4.0,10.0,95,0.00,,,0.00,Weather View 32 v70,2013-02-07 11:41:00,
2013-02-07 05:46:00,0.0,-78.6,0.93,North,0,0.0,10.0,1,0.00,,,0.00,Weather View 32 v70,2013-02-07 11:46:00,
2013-02-07 05:51:00,0.0,-78.6,0.93,North,0,0.0,10.0,1,0.00,,,0.00,Weather View 32 v70,2013-02-07 11:51:00,
2013-02-07 05:56:00,32.6,31.3,30.05,SSE,157,9.0,10.0,95,0.00,,,0.00,Weather View 32 v70,2013-02-07 11:56:00,
2013-02-07 06:01:00,0.0,-78.6,0.93,North,0,0.0,10.0,1,0.00,,,0.00,Weather View 32 v70,2013-02-07 12:01:00,
2013-02-07 06:06:00,32.6,31.3,30.05,SE,135,2.0,10.0,95,0.00,,,0.00,Weather View 32 v70,2013-02-07 12:06:00,
2013-02-07 06:11:00,0.0,-78.6,0.93,North,0,0.0,10.0,1,0.00,,,0.00,Weather View 32 v70,2013-02-07 12:11:00,
2013-02-07 06:16:00,0.0,-78.6,0.93,North,0,0.0,9.0,1,0.00,,,0.00,Weather View 32 v70,2013-02-07 12:16:00,
2013-02-07 06:21:00,32.6,31.3,30.05,SSE,157,9.0,9.0,95,0.00,,,0.00,Weather View 32 v70,2013-02-07 12:21:00,
2013-02-07 06:26:00,32.6,31.3,30.05,SSE,157,6.0,11.0,95,0.00,,,0.00,Weather View 32 v70,2013-02-07 12:26:00,
2013-02-07 06:31:00,0.0,-78.6,0.93,North,0,0.0,11.0,1,0.00,,,0.00,Weather View 32 v70,2013-02-07 12:31:00,
2013-02-07 06:36:00,32.5,31.2,30.04,SSE,157,10.0,11.0,95,0.00,,,0.00,Weather View 32 v70,2013-02-07 12:36:00,
2013-02-07 06:41:00,32.5,31.2,30.04,South,180,12.0,14.0,95,0.00,,,0.00,Weather View 32 v70,2013-02-07 12:41:00,
2013-02-07 06:46:00,32.6,31.3,30.04,SE,135,7.0,14.0,95,0.00,,,0.00,Weather View 32 v70,2013-02-07 12:46:00,
2013-02-07 06:51:00,32.4,31.1,30.04,South,180,6.0,14.0,95,0.00,,,0.00,Weather View 32 v70,2013-02-07 12:51:00,
2013-02-07 06:56:00,32.3,31.0,30.04,SE,135,7.0,14.0,95,0.00,,,0.00,Weather View 32 v70,2013-02-07 12:56:00,
2013-02-07 07:01:00,32.3,31.0,30.04,SE,135,9.0,14.0,95,0.00,,,0.00,Weather View 32 v70,2013-02-07 13:01:00,
2013-02-07 07:06:00,32.3,31.0,30.04,SW,225,4.0,14.0,95,0.00,,,0.00,Weather View 32 v70,2013-02-07 13:06:00,
2013-02-07 07:11:00,32.3,31.0,30.04,SSW,202,12.0,14.0,95,0.00,,,0.00,Weather View 32 v70,2013-02-07 13:11:00,
2013-02-07 07:16:00,32.2,30.9,30.04,SE,135,8.0,14.0,95,0.00,,,0.00,Weather View 32 v70,2013-02-07 13:16:00,
2013-02-07 07:21:00,32.1,30.8,30.04,SSE,157,7.0,14.0,95,0.00,,,0.00,Weather View 32 v70,2013-02-07 13:21:00,
2013-02-07 07:26:00,31.9,30.6,30.04,SSE,157,3.0,14.0,95,0.00,,,0.00,Weather View 32 v70,2013-02-07 13:26:00,
2013-02-07 07:31:00,31.9,30.6,30.04,SE,135,11.0,14.0,95,0.00,,,0.00,Weather View 32 v70,2013-02-07 13:31:00,
2013-02-07 07:36:00,32.0,30.7,30.04,SE,135,4.0,14.0,95,0.00,,,0.00,Weather View 32 v70,2013-02-07 13:36:00,
2013-02-07 07:41:00,31.9,30.6,30.04,South,180,7.0,16.0,95,0.00,,,0.00,Weather View 32 v70,2013-02-07 13:41:00,
2013-02-07 07:46:00,31.8,30.5,30.03,SE,135,6.0,16.0,95,0.00,,,0.00,Weather View 32 v70,2013-02-07 13:46:00,
2013-02-07 07:51:00,31.8,30.5,30.03,SE,135,9.0,16.0,95,0.00,,,0.00,Weather View 32 v70,2013-02-07 13:51:00,
2013-02-07 07:56:00,31.7,30.4,30.03,SE,135,10.0,16.0,95,0.00,,,0.00,Weather View 32 v70,2013-02-07 13:56:00,
2013-02-07 08:01:00,31.7,30.4,30.03,SE,135,5.0,16.0,95,0.00,,,0.00,Weather View 32 v70,2013-02-07 14:01:00,
2013-02-07 08:06:00,31.8,30.5,30.03,SSE,157,9.0,16.0,95,0.00,,,0.00,Weather View 32 v70,2013-02-07 14:06:00,
2013-02-07 08:11:00,31.8,30.5,30.03,SE,135,10.0,16.0,95,0.00,,,0.00,Weather View 32 v70,2013-02-07 14:11:00,
2013-02-07 08:16:00,31.8,30.5,30.03,SSE,157,9.0,16.0,95,0.00,,,0.00,Weather View 32 v70,2013-02-07 14:16:00,
2013-02-07 08:21:00,31.9,30.6,30.03,SE,135,11.0,16.0,95,0.00,,,0.00,Weather View 32 v70,2013-02-07 14:21:00,
2013-02-07 08:26:00,31.9,30.6,30.03,SE,135,11.0,16.0,95,0.00,,,0.00,Weather View 32 v70,2013-02-07 14:26:00,
2013-02-07 08:31:00,31.9,30.6,30.03,South,180,3.0,16.0,95,0.00,,,0.00,Weather View 32 v70,2013-02-07 14:31:00,
2013-02-07 08:36:00,31.9,30.6,30.03,SSW,202,2.0,16.0,95,0.00,,,0.00,Weather View 32 v70,2013-02-07 14:36:00,
2013-02-07 08:41:00,31.8,30.5,30.03,SE,135,8.0,14.0,95,0.00,,,0.00,Weather View 32 v70,2013-02-07 14:41:00,
2013-02-07 08:46:00,31.9,30.6,30.03,SE,135,1.0,14.0,95,0.00,,,0.00,Weather View 32 v70,2013-02-07 14:46:00,
2013-02-07 08:51:00,31.9,30.6,30.03,SE,135,5.0,14.0,95,0.00,,,0.00,Weather View 32 v70,2013-02-07 14:51:00,
2013-02-07 08:56:00,31.9,30.6,30.03,South,180,4.0,14.0,95,0.00,,,0.00,Weather View 32 v70,2013-02-07 14:56:00,
2013-02-07 09:01:00,31.9,30.6,30.03,South,180,7.0,12.0,95,0.00,,,0.00,Weather View 32 v70,2013-02-07 15:01:00,
2013-02-07 09:06:00,31.9,30.6,30.03,SSE,157,4.0,12.0,95,0.00,,,0.00,Weather View 32 v70,2013-02-07 15:06:00,
2013-02-07 09:11:00,32.1,30.8,30.03,SE,135,11.0,12.0,95,0.00,,,0.00,Weather View 32 v70,2013-02-07 15:11:00,
2013-02-07 09:16:00,32.0,30.7,30.02,South,180,3.0,12.0,95,0.00,,,0.00,Weather View 32 v70,2013-02-07 15:16:00,
2013-02-07 09:21:00,32.1,30.8,30.02,East,90,6.0,12.0,95,0.00,,,0.00,Weather View 32 v70,2013-02-07 15:21:00,
2013-02-07 09:26:00,0.0,-78.6,0.93,North,0,0.0,12.0,1,0.00,,,0.00,Weather View 32 v70,2013-02-07 15:26:00,
2013-02-07 09:31:00,32.1,30.8,30.02,SE,135,6.0,11.0,95,0.00,,,0.00,Weather View 32 v70,2013-02-07 15:31:00,
2013-02-07 09:36:00,32.1,30.8,30.02,South,180,3.0,11.0,95,0.00,,,0.00,Weather View 32 v70,2013-02-07 15:36:00,
2013-02-07 09:41:00,32.1,30.8,30.02,SSE,157,4.0,11.0,95,0.00,,,0.00,Weather View 32 v70,2013-02-07 15:41:00,
2013-02-07 09:46:00,32.1,30.8,30.02,SSW,202,5.0,11.0,95,0.00,,,0.00,Weather View 32 v70,2013-02-07 15:46:00,
2013-02-07 09:51:00,32.1,30.8,30.02,South,180,5.0,11.0,95,0.00,,,0.00,Weather View 32 v70,2013-02-07 15:51:00,
2013-02-07 09:56:00,32.1,30.8,30.01,East,90,1.0,11.0,95,0.00,,,0.00,Weather View 32 v70,2013-02-07 15:56:00,
2013-02-07 10:01:00,32.1,30.8,30.02,South,180,4.0,11.0,95,0.00,,,0.00,Weather View 32 v70,2013-02-07 16:01:00,
2013-02-07 10:06:00,32.1,30.8,30.02,South,180,6.0,11.0,95,0.00,,,0.00,Weather View 32 v70,2013-02-07 16:06:00,
2013-02-07 10:11:00,32.1,30.8,30.02,ESE,112,6.0,11.0,95,0.00,,,0.00,Weather View 32 v70,2013-02-07 16:11:00,
2013-02-07 10:16:00,0.0,-78.6,0.93,North,0,0.0,11.0,1,0.00,,,0.00,Weather View 32 v70,2013-02-07 16:16:00,
2013-02-07 10:21:00,32.1,30.8,30.02,South,180,7.0,11.0,95,0.00,,,0.00,Weather View 32 v70,2013-02-07 16:21:00,
2013-02-07 10:26:00,32.0,30.7,30.02,South,180,1.0,11.0,95,0.00,,,0.00,Weather View 32 v70,2013-02-07 16:26:00,
2013-02-07 10:31:00,32.2,30.9,30.02,SE,135,1.0,11.0,95,0.00,,,0.00,Weather View 32 v70,2013-02-07 16:31:00,
2013-02-07 10:36:00,32.2,30.9,30.02,SSE,157,4.0,11.0,95,0.00,,,0.00,Weather View 32 v70,2013-02-07 16:36:00,
2013-02-07 10:41:00,32.2,30.9,30.02,SE,135,2.0,11.0,95,0.01,,,0.01,Weather View 32 v70,2013-02-07 16:41:00,
2013-02-07 10:46:00,32.2,30.9,30.02,SSE,157,4.0,11.0,95,0.01,,,0.01,Weather View 32 v70,2013-02-07 16:46:00,
2013-02-07 10:51:00,32.2,30.9,30.02,SE,135,2.0,11.0,95,0.01,,,0.01,Weather View 32 v70,2013-02-07 16:51:00,
2013-02-07 10:56:00,32.2,30.9,30.02,South,180,6.0,11.0,95,0.01,,,0.01,Weather View 32 v70,2013-02-07 16:56:00,
2013-02-07 11:01:00,32.2,30.9,30.02,South,180,4.0,11.0,95,0.01,,,0.02,Weather View 32 v70,2013-02-07 17:01:00,
2013-02-07 11:06:00,32.2,30.9,30.02,South,180,1.0,11.0,95,0.02,,,0.02,Weather View 32 v70,2013-02-07 17:06:00,
2013-02-07 11:11:00,32.2,30.9,30.01,South,180,4.0,11.0,95,0.02,,,0.02,Weather View 32 v70,2013-02-07 17:11:00,
2013-02-07 11:16:00,32.1,30.8,30.01,SW,225,5.0,11.0,95,0.02,,,0.02,Weather View 32 v70,2013-02-07 17:16:00,
2013-02-07 11:21:00,32.2,30.9,30.01,ESE,112,7.0,11.0,95,0.02,,,0.02,Weather View 32 v70,2013-02-07 17:21:00,
2013-02-07 11:26:00,32.2,30.9,30.00,South,180,5.0,11.0,95,0.02,,,0.03,Weather View 32 v70,2013-02-07 17:26:00,
2013-02-07 11:31:00,32.2,30.9,30.00,South,180,9.0,11.0,95,0.03,,,0.03,Weather View 32 v70,2013-02-07 17:31:00,
2013-02-07 11:36:00,32.2,30.9,30.00,South,180,3.0,11.0,95,0.03,,,0.03,Weather View 32 v70,2013-02-07 17:36:00,
2013-02-07 11:41:00,32.2,30.9,30.00,South,180,4.0,11.0,95,0.02,,,0.03,Weather View 32 v70,2013-02-07 17:41:00,
2013-02-07 11:46:00,32.3,31.0,29.99,South,180,5.0,11.0,95,0.02,,,0.03,Weather View 32 v70,2013-02-07 17:46:00,
2013-02-07 11:51:00,32.2,30.9,29.99,SE,135,4.0,11.0,95,0.02,,,0.03,Weather View 32 v70,2013-02-07 17:51:00,
2013-02-07 11:56:00,32.2,30.9,29.99,SSW,202,4.0,11.0,95,0.02,,,0.03,Weather View 32 v70,2013-02-07 17:56:00,
2013-02-07 12:01:00,32.3,31.0,29.98,South,180,1.0,9.0,95,0.02,,,0.03,Weather View 32 v70,2013-02-07 18:01:00,
2013-02-07 12:06:00,32.3,31.0,29.98,SE,135,4.0,9.0,95,0.01,,,0.03,Weather View 32 v70,2013-02-07 18:06:00,
2013-02-07 12:11:00,32.2,30.9,29.98,South,180,4.0,9.0,95,0.01,,,0.03,Weather View 32 v70,2013-02-07 18:11:00,
2013-02-07 12:16:00,32.3,31.0,29.98,SSE,157,2.0,9.0,95,0.01,,,0.03,Weather View 32 v70,2013-02-07 18:16:00,
2013-02-07 12:21:00,0.0,-78.6,0.93,North,0,0.0,9.0,1,-0.02,,,0.00,Weather View 32 v70,2013-02-07 18:21:00,
2013-02-07 12:26:00,32.1,30.8,29.98,South,180,3.0,9.0,95,0.01,,,0.03,Weather View 32 v70,2013-02-07 18:26:00,
2013-02-07 12:31:00,32.3,31.0,29.98,South,180,4.0,9.0,95,0.00,,,0.03,Weather View 32 v70,2013-02-07 18:31:00,
2013-02-07 12:36:00,32.2,30.9,29.98,SW,225,2.0,8.0,95,0.00,,,0.03,Weather View 32 v70,2013-02-07 18:36:00,
2013-02-07 12:41:00,32.0,30.7,29.98,SW,225,2.0,8.0,95,0.00,,,0.03,Weather View 32 v70,2013-02-07 18:41:00,
2013-02-07 12:46:00,0.0,-78.6,0.93,North,0,0.0,8.0,1,-0.03,,,0.00,Weather View 32 v70,2013-02-07 18:46:00,
2013-02-07 12:51:00,0.0,-78.6,0.93,North,0,0.0,7.0,1,-0.03,,,0.00,Weather View 32 v70,2013-02-07 18:51:00,
2013-02-07 12:56:00,0.0,-78.6,0.93,North,0,0.0,7.0,1,-0.03,,,0.00,Weather View 32 v70,2013-02-07 18:56:00,
2013-02-07 13:01:00,0.0,-78.6,0.93,North,0,0.0,6.0,1,-0.03,,,0.00,Weather View 32 v70,2013-02-07 19:01:00,
2013-02-07 13:06:00,32.0,30.7,29.96,SSE,157,2.0,6.0,95,0.00,,,0.03,Weather View 32 v70,2013-02-07 19:06:00,
2013-02-07 13:11:00,0.0,-78.6,0.93,North,0,0.0,4.0,1,-0.03,,,0.00,Weather View 32 v70,2013-02-07 19:11:00,
2013-02-07 13:16:00,32.0,30.7,29.96,SSW,202,2.0,4.0,95,0.00,,,0.03,Weather View 32 v70,2013-02-07 19:16:00,
2013-02-07 13:21:00,32.0,30.7,29.96,South,180,2.0,4.0,95,0.03,,,0.03,Weather View 32 v70,2013-02-07 19:21:00,
2013-02-07 13:26:00,0.0,-78.6,0.93,North,0,0.0,4.0,1,-0.03,,,0.00,Weather View 32 v70,2013-02-07 19:26:00,
2013-02-07 13:31:00,0.0,-78.6,0.93,North,0,0.0,4.0,1,-0.03,,,0.00,Weather View 32 v70,2013-02-07 19:31:00,
2013-02-07 13:37:00,0.0,-78.6,0.93,North,0,0.0,2.0,1,-0.03,,,0.00,Weather View 32 v70,2013-02-07 19:37:00,
2013-02-07 13:42:00,0.0,-78.6,0.93,North,0,0.0,2.0,1,-0.03,,,0.00,Weather View 32 v70,2013-02-07 19:42:00,
2013-02-07 13:47:00,0.0,-78.6,0.93,North,0,0.0,2.0,1,0.00,,,0.00,Weather View 32 v70,2013-02-07 19:47:00,
2013-02-07 13:52:00,0.0,-78.6,0.93,North,0,0.0,2.0,1,0.00,,,0.00,Weather View 32 v70,2013-02-07 19:52:00,
2013-02-07 13:57:00,32.0,30.7,29.94,SSE,157,0.0,2.0,95,0.03,,,0.03,Weather View 32 v70,2013-02-07 19:57:00,
2013-02-07 14:02:00,0.0,-78.6,0.93,North,0,0.0,2.0,1,0.03,,,0.00,Weather View 32 v70,2013-02-07 20:02:00,
2013-02-07 14:07:00,0.0,-78.6,0.93,North,0,0.0,2.0,1,-0.03,,,0.00,Weather View 32 v70,2013-02-07 20:07:00,
2013-02-07 14:12:00,0.0,-78.6,0.93,North,0,0.0,2.0,1,0.00,,,0.00,Weather View 32 v70,2013-02-07 20:12:00,
2013-02-07 14:17:00,0.0,-78.6,0.93,North,0,0.0,2.0,1,-0.03,,,0.00,Weather View 32 v70,2013-02-07 20:17:00,
2013-02-07 14:22:00,32.0,30.7,29.92,SE,135,0.0,2.0,95,0.00,,,0.03,Weather View 32 v70,2013-02-07 20:22:00,
2013-02-07 14:27:00,0.0,-78.6,0.93,North,0,0.0,2.0,1,0.00,,,0.00,Weather View 32 v70,2013-02-07 20:27:00,
2013-02-07 14:32:00,0.0,-78.6,0.93,North,0,0.0,2.0,1,0.00,,,0.00,Weather View 32 v70,2013-02-07 20:32:00,
2013-02-07 14:37:00,0.0,-78.6,0.93,North,0,0.0,2.0,1,0.00,,,0.00,Weather View 32 v70,2013-02-07 20:37:00,
2013-02-07 14:42:00,0.0,-78.6,0.93,North,0,0.0,2.0,1,0.00,,,0.00,Weather View 32 v70,2013-02-07 20:42:00,
2013-02-07 14:47:00,0.0,-78.6,0.93,North,0,0.0,2.0,1,0.00,,,0.00,Weather View 32 v70,2013-02-07 20:47:00,
2013-02-07 14:52:00,0.0,-78.6,0.93,North,0,0.0,2.0,1,0.00,,,0.00,Weather View 32 v70,2013-02-07 20:52:00,
2013-02-07 14:57:00,31.9,30.6,29.92,SE,135,0.0,2.0,95,0.00,,,0.03,Weather View 32 v70,2013-02-07 20:57:00,
2013-02-07 15:02:00,31.9,30.6,29.91,SE,135,0.0,0.0,95,0.00,,,0.03,Weather View 32 v70,2013-02-07 21:02:00,
2013-02-07 15:07:00,31.9,30.6,29.91,SE,135,0.0,0.0,95,0.03,,,0.03,Weather View 32 v70,2013-02-07 21:07:00,
2013-02-07 15:12:00,31.9,30.6,29.91,SE,135,0.0,0.0,95,0.03,,,0.03,Weather View 32 v70,2013-02-07 21:12:00,
2013-02-07 15:17:00,31.9,30.6,29.91,SE,135,0.0,0.0,95,0.03,,,0.03,Weather View 32 v70,2013-02-07 21:17:00,
2013-02-07 15:22:00,31.9,30.6,29.91,SE,135,0.0,0.0,95,0.00,,,0.03,Weather View 32 v70,2013-02-07 21:22:00,
2013-02-07 15:27:00,31.9,30.6,29.90,SE,135,0.0,0.0,95,0.03,,,0.03,Weather View 32 v70,2013-02-07 21:27:00,
2013-02-07 15:32:00,31.9,30.6,29.90,SE,135,0.0,0.0,95,0.03,,,0.03,Weather View 32 v70,2013-02-07 21:32:00,
2013-02-07 15:37:00,31.9,30.6,29.90,SE,135,0.0,0.0,95,0.03,,,0.03,Weather View 32 v70,2013-02-07 21:37:00,
2013-02-07 15:42:00,31.9,30.6,29.90,SE,135,0.0,0.0,95,0.03,,,0.03,Weather View 32 v70,2013-02-07 21:42:00,
2013-02-07 15:47:00,31.9,30.6,29.90,SE,135,0.0,0.0,95,0.03,,,0.03,Weather View 32 v70,2013-02-07 21:47:00,
2013-02-07 15:52:00,31.9,30.6,29.90,SE,135,0.0,0.0,95,0.03,,,0.03,Weather View 32 v70,2013-02-07 21:52:00,
2013-02-07 15:57:00,31.8,30.5,29.90,SE,135,0.0,0.0,95,0.00,,,0.03,Weather View 32 v70,2013-02-07 21:57:00,
2013-02-07 16:02:00,0.0,-78.6,0.93,North,0,0.0,0.0,1,-0.03,,,0.00,Weather View 32 v70,2013-02-07 22:02:00,
2013-02-07 16:07:00,31.9,30.6,29.90,SE,135,0.0,0.0,95,0.00,,,0.03,Weather View 32 v70,2013-02-07 22:07:00,
2013-02-07 16:12:00,0.0,-78.6,0.93,North,0,0.0,0.0,1,-0.03,,,0.00,Weather View 32 v70,2013-02-07 22:12:00,
2013-02-07 16:17:00,0.0,-78.6,0.93,North,0,0.0,0.0,1,-0.03,,,0.00,Weather View 32 v70,2013-02-07 22:17:00,
2013-02-07 16:22:00,0.0,-78.6,0.93,North,0,0.0,0.0,1,-0.03,,,0.00,Weather View 32 v70,2013-02-07 22:22:00,
2013-02-07 16:27:00,0.0,-78.6,0.93,North,0,0.0,0.0,1,-0.03,,,0.00,Weather View 32 v70,2013-02-07 22:27:00,
2013-02-07 16:32:00,0.0,-78.6,0.93,North,0,0.0,0.0,1,-0.03,,,0.00,Weather View 32 v70,2013-02-07 22:32:00,
2013-02-07 16:37:00,0.0,-78.6,0.93,North,0,0.0,0.0,1,-0.03,,,0.00,Weather View 32 v70,2013-02-07 22:37:00,
2013-02-07 16:42:00,0.0,-78.6,0.93,North,0,0.0,0.0,1,-0.03,,,0.00,Weather View 32 v70,2013-02-07 22:42:00,
2013-02-07 16:47:00,0.0,-78.6,0.93,North,0,0.0,0.0,1,-0.03,,,0.00,Weather View 32 v70,2013-02-07 22:47:00,
2013-02-07 16:52:00,0.0,-78.6,0.93,North,0,0.0,0.0,1,-0.03,,,0.00,Weather View 32 v70,2013-02-07 22:52:00,
2013-02-07 16:57:00,0.0,-78.6,0.93,North,0,0.0,0.0,1,-0.03,,,0.00,Weather View 32 v70,2013-02-07 22:57:00,
2013-02-07 17:02:00,0.0,-78.6,0.93,North,0,0.0,0.0,1,0.00,,,0.00,Weather View 32 v70,2013-02-07 23:02:00,
2013-02-07 17:07:00,31.6,30.3,29.90,SE,135,0.0,0.0,95,-0.03,,,0.03,Weather View 32 v70,2013-02-07 23:07:00,
2013-02-07 17:12:00,31.6,30.3,29.89,SE,135,0.0,0.0,95,0.03,,,0.03,Weather View 32 v70,2013-02-07 23:12:00,
2013-02-07 17:17:00,31.6,30.3,29.90,SE,135,0.0,0.0,95,0.03,,,0.03,Weather View 32 v70,2013-02-07 23:17:00,
2013-02-07 17:22:00,31.6,30.3,29.90,SE,135,0.0,0.0,95,0.03,,,0.03,Weather View 32 v70,2013-02-07 23:22:00,
2013-02-07 17:27:00,31.6,30.3,29.90,SE,135,0.0,0.0,95,0.03,,,0.03,Weather View 32 v70,2013-02-07 23:27:00,
2013-02-07 17:32:00,31.6,30.3,29.90,SE,135,0.0,0.0,95,0.05,,,0.03,Weather View 32 v70,2013-02-07 23:32:00,
2013-02-07 17:37:00,31.6,30.3,29.90,SE,135,0.0,0.0,95,0.03,,,0.03,Weather View 32 v70,2013-02-07 23:37:00,
2013-02-07 17:42:00,31.6,30.3,29.91,SE,135,0.0,0.0,95,0.03,,,0.03,Weather View 32 v70,2013-02-07 23:42:00,
2013-02-07 17:47:00,31.6,30.3,29.91,SE,135,0.0,0.0,95,0.03,,,0.03,Weather View 32 v70,2013-02-07 23:47:00,
2013-02-07 17:52:00,31.5,30.2,29.91,SE,135,0.0,0.0,95,0.03,,,0.03,Weather View 32 v70,2013-02-07 23:52:00,
2013-02-07 17:57:00,31.5,30.2,29.91,SE,135,0.0,0.0,95,0.03,,,0.03,Weather View 32 v70,2013-02-07 23:57:00,
2013-02-07 18:02:00,31.5,30.2,29.91,SE,135,0.0,0.0,95,0.03,,,0.03,Weather View 32 v70,2013-02-08 00:02:00,
2013-02-07 18:07:00,31.5,30.2,29.91,SE,135,0.0,0.0,95,0.00,,,0.03,Weather View 32 v70,2013-02-08 00:07:00,
2013-02-07 18:12:00,31.5,30.2,29.91,SE,135,0.0,0.0,95,0.00,,,0.03,Weather View 32 v70,2013-02-08 00:12:00,
2013-02-07 18:17:00,31.5,30.2,29.92,SE,135,0.0,0.0,95,0.00,,,0.03,Weather View 32 v70,2013-02-08 00:17:00,
2013-02-07 18:22:00,31.5,30.2,29.92,SE,135,0.0,0.0,95,0.00,,,0.03,Weather View 32 v70,2013-02-08 00:22:00,
2013-02-07 18:27:00,31.5,30.2,29.92,SE,135,0.0,0.0,95,0.00,,,0.03,Weather View 32 v70,2013-02-08 00:27:00,
2013-02-07 18:32:00,31.6,30.3,29.92,SE,135,0.0,0.0,95,0.00,,,0.03,Weather View 32 v70,2013-02-08 00:32:00,
2013-02-07 18:37:00,31.6,30.3,29.92,SE,135,0.0,0.0,95,0.00,,,0.03,Weather View 32 v70,2013-02-08 00:37:00,
2013-02-07 18:42:00,31.6,30.3,29.92,SE,135,0.0,0.0,95,0.00,,,0.03,Weather View 32 v70,2013-02-08 00:42:00,
2013-02-07 18:47:00,31.6,30.3,29.92,SE,135,0.0,0.0,95,0.00,,,0.03,Weather View 32 v70,2013-02-08 00:47:00,
2013-02-07 18:52:00,31.6,30.3,29.92,SE,135,0.0,0.0,95,0.00,,,0.03,Weather View 32 v70,2013-02-08 00:52:00,
2013-02-07 18:57:00,31.6,30.3,29.92,ENE,67,0.0,0.0,95,0.00,,,0.03,Weather View 32 v70,2013-02-08 00:57:00,
2013-02-07 19:02:00,31.6,30.3,29.92,ENE,67,0.0,0.0,95,0.00,,,0.03,Weather View 32 v70,2013-02-08 01:02:00,
2013-02-07 19:07:00,31.6,30.3,29.92,ENE,67,0.0,0.0,95,0.00,,,0.03,Weather View 32 v70,2013-02-08 01:07:00,
2013-02-07 19:12:00,31.6,30.3,29.92,NE,45,0.0,0.0,95,0.00,,,0.03,Weather View 32 v70,2013-02-08 01:12:00,
2013-02-07 19:17:00,31.6,30.3,29.92,North,360,0.0,0.0,95,0.00,,,0.03,Weather View 32 v70,2013-02-08 01:17:00,
2013-02-07 19:22:00,31.6,30.3,29.92,NE,45,0.0,0.0,95,0.00,,,0.03,Weather View 32 v70,2013-02-08 01:22:00,
2013-02-07 19:27:00,31.6,30.3,29.92,NW,315,0.0,0.0,95,0.00,,,0.03,Weather View 32 v70,2013-02-08 01:27:00,
2013-02-07 19:32:00,31.6,30.3,29.92,North,360,0.0,0.0,95,0.00,,,0.03,Weather View 32 v70,2013-02-08 01:32:00,
2013-02-07 19:37:00,31.6,30.3,29.92,NE,45,0.0,0.0,95,0.00,,,0.03,Weather View 32 v70,2013-02-08 01:37:00,
2013-02-07 19:42:00,31.7,30.4,29.92,North,360,0.0,0.0,95,0.00,,,0.03,Weather View 32 v70,2013-02-08 01:42:00,
2013-02-07 19:47:00,31.7,30.4,29.92,North,360,0.0,0.0,95,0.00,,,0.03,Weather View 32 v70,2013-02-08 01:47:00,
2013-02-07 19:52:00,31.7,30.4,29.92,NE,45,0.0,0.0,95,0.00,,,0.03,Weather View 32 v70,2013-02-08 01:52:00,
2013-02-07 19:57:00,31.7,30.4,29.92,NE,45,0.0,0.0,95,0.00,,,0.03,Weather View 32 v70,2013-02-08 01:57:00,
2013-02-07 20:02:00,31.7,30.4,29.92,NE,45,0.0,0.0,95,0.00,,,0.03,Weather View 32 v70,2013-02-08 02:02:00,
2013-02-07 20:07:00,31.7,30.4,29.92,NW,315,0.0,0.0,95,0.00,,,0.03,Weather View 32 v70,2013-02-08 02:07:00,
2013-02-07 20:12:00,31.7,30.4,29.92,North,360,0.0,0.0,95,0.01,,,0.04,Weather View 32 v70,2013-02-08 02:12:00,
2013-02-07 20:17:00,31.7,30.4,29.92,North,360,0.0,0.0,95,0.01,,,0.04,Weather View 32 v70,2013-02-08 02:17:00,
2013-02-07 20:22:00,31.7,30.4,29.92,North,360,0.0,0.0,95,0.01,,,0.04,Weather View 32 v70,2013-02-08 02:22:00,
2013-02-07 20:27:00,31.8,30.5,29.92,North,360,0.0,0.0,95,0.01,,,0.04,Weather View 32 v70,2013-02-08 02:27:00,
2013-02-07 20:32:00,31.8,30.5,29.93,NNW,337,0.0,0.0,95,0.01,,,0.04,Weather View 32 v70,2013-02-08 02:32:00,
2013-02-07 20:37:00,31.8,30.5,29.93,North,360,0.0,0.0,95,0.01,,,0.04,Weather View 32 v70,2013-02-08 02:37:00,
2013-02-07 20:42:00,31.8,30.5,29.93,NW,315,0.0,0.0,95,0.01,,,0.04,Weather View 32 v70,2013-02-08 02:42:00,
2013-02-07 20:47:00,31.8,30.5,29.93,WNW,292,0.0,0.0,95,0.01,,,0.04,Weather View 32 v70,2013-02-08 02:47:00,
2013-02-07 20:52:00,31.7,30.4,29.93,NE,45,0.0,0.0,95,0.01,,,0.04,Weather View 32 v70,2013-02-08 02:52:00,
2013-02-07 20:57:00,31.7,30.4,29.93,NE,45,0.0,0.0,95,0.01,,,0.04,Weather View 32 v70,2013-02-08 02:57:00,
2013-02-07 21:02:00,31.7,30.4,29.94,NW,315,0.0,0.0,95,0.01,,,0.04,Weather View 32 v70,2013-02-08 03:02:00,
2013-02-07 21:07:00,31.7,30.4,29.94,WNW,292,2.0,3.0,95,0.01,,,0.04,Weather View 32 v70,2013-02-08 03:07:00,
2013-02-07 21:12:00,31.7,30.4,29.94,NW,315,2.0,3.0,95,0.00,,,0.04,Weather View 32 v70,2013-02-08 03:12:00,
2013-02-07 21:17:00,31.7,30.4,29.94,NE,45,3.0,4.0,95,0.00,,,0.04,Weather View 32 v70,2013-02-08 03:17:00,
2013-02-07 21:22:00,31.7,30.4,29.94,North,360,1.0,7.0,95,0.00,,,0.04,Weather View 32 v70,2013-02-08 03:22:00,
2013-02-07 21:27:00,31.6,30.3,29.94,NW,315,4.0,9.0,95,0.00,,,0.04,Weather View 32 v70,2013-02-08 03:27:00,
2013-02-07 21:32:00,31.6,30.3,29.94,North,360,2.0,9.0,95,0.00,,,0.04,Weather View 32 v70,2013-02-08 03:32:00,
2013-02-07 21:37:00,31.3,30.0,29.94,North,360,4.0,9.0,95,0.00,,,0.04,Weather View 32 v70,2013-02-08 03:37:00,
2013-02-07 21:43:00,30.9,29.4,29.94,North,360,1.0,9.0,94,0.00,,,0.04,Weather View 32 v70,2013-02-08 03:43:00,
2013-02-07 21:48:00,30.6,29.1,29.94,NW,315,4.0,9.0,94,0.00,,,0.04,Weather View 32 v70,2013-02-08 03:48:00,
2013-02-07 21:53:00,29.9,28.4,29.94,West,270,1.0,9.0,94,0.00,,,0.04,Weather View 32 v70,2013-02-08 03:53:00,
2013-02-07 21:58:00,29.4,27.9,29.94,NW,315,6.0,9.0,94,0.00,,,0.04,Weather View 32 v70,2013-02-08 03:58:00,
2013-02-07 22:03:00,28.8,27.3,29.95,NW,315,3.0,9.0,94,0.00,,,0.04,Weather View 32 v70,2013-02-08 04:03:00,
2013-02-07 22:08:00,27.7,26.2,29.96,NW,315,1.0,9.0,94,0.00,,,0.04,Weather View 32 v70,2013-02-08 04:08:00,
2013-02-07 22:13:00,27.3,25.8,29.95,NW,315,6.0,9.0,94,0.00,,,0.04,Weather View 32 v70,2013-02-08 04:13:00,
2013-02-07 22:18:00,26.9,25.4,29.96,West,270,1.0,9.0,94,0.00,,,0.04,Weather View 32 v70,2013-02-08 04:18:00,
2013-02-07 22:23:00,26.5,25.0,29.96,NW,315,1.0,9.0,94,0.00,,,0.04,Weather View 32 v70,2013-02-08 04:23:00,
2013-02-07 22:28:00,26.1,24.6,29.96,NW,315,2.0,9.0,94,0.00,,,0.04,Weather View 32 v70,2013-02-08 04:28:00,
2013-02-07 22:33:00,25.9,24.4,29.97,NW,315,6.0,9.0,94,0.00,,,0.04,Weather View 32 v70,2013-02-08 04:33:00,
2013-02-07 22:38:00,25.6,24.1,29.96,NNW,337,2.0,11.0,94,0.00,,,0.04,Weather View 32 v70,2013-02-08 04:38:00,
2013-02-07 22:43:00,25.5,24.0,29.96,NW,315,2.0,11.0,94,0.00,,,0.04,Weather View 32 v70,2013-02-08 04:43:00,
2013-02-07 22:48:00,25.2,23.7,29.97,West,270,2.0,11.0,94,0.00,,,0.04,Weather View 32 v70,2013-02-08 04:48:00,
2013-02-07 22:53:00,25.0,23.5,29.97,SSE,157,2.0,11.0,94,0.00,,,0.04,Weather View 32 v70,2013-02-08 04:53:00,
2013-02-07 22:58:00,24.9,23.2,29.97,NW,315,2.0,11.0,93,0.00,,,0.04,Weather View 32 v70,2013-02-08 04:58:00,
2013-02-07 23:00:00,24.9,23.2,29.97,NW,315,2.0,11.0,93,0.00,,,0.04,Weather View 32 v70,2013-02-08 05:00:00,
2013-02-07 23:05:00,24.9,23.2,29.97,NE,45,2.0,11.0,93,0.00,,,0.04,Weather View 32 v70,2013-02-08 05:05:00,
2013-02-07 23:10:00,24.8,23.1,29.97,North,360,4.0,11.0,93,0.00,,,0.04,Weather View 32 v70,2013-02-08 05:10:00,
2013-02-07 23:15:00,24.8,23.1,29.97,NW,315,0.0,11.0,93,0.00,,,0.04,Weather View 32 v70,2013-02-08 05:15:00,
2013-02-07 23:20:00,24.7,23.0,29.97,North,360,6.0,11.0,93,0.00,,,0.04,Weather View 32 v70,2013-02-08 05:20:00,
2013-02-07 23:25:00,24.6,22.9,29.97,NW,315,7.0,11.0,93,0.00,,,0.04,Weather View 32 v70,2013-02-08 05:25:00,
2013-02-07 23:30:00,24.6,22.9,29.97,NW,315,1.0,11.0,93,0.00,,,0.04,Weather View 32 v70,2013-02-08 05:30:00,
2013-02-07 23:35:00,24.5,22.8,29.97,NW,315,3.0,11.0,93,0.00,,,0.04,Weather View 32 v70,2013-02-08 05:35:00,
2013-02-07 23:40:00,24.4,22.7,29.98,NW,315,1.0,11.0,93,0.00,,,0.04,Weather View 32 v70,2013-02-08 05:40:00,
2013-02-07 23:45:00,24.3,22.6,29.98,NNW,337,4.0,11.0,93,0.00,,,0.04,Weather View 32 v70,2013-02-08 05:45:00,
2013-02-07 23:50:00,24.2,22.5,29.98,NW,315,3.0,11.0,93,0.00,,,0.04,Weather View 32 v70,2013-02-08 05:50:00,
2013-02-07 23:55:00,24.1,22.4,29.98,WNW,292,2.0,11.0,93,0.00,,,0.04,Weather View 32 v70,2013-02-08 05:55:00,